Fairbanks Eiels, AK

8:10 PM AKDT on June 25, 2017 (GMT -0800)
Eielson Air Force Base

Weather History for PAEI - May, 2013

Change the Weather History Date:

Sunday, May 19, 2013

  Actual Average Record
Temperature  
Mean Temperature 33 °F -  
Max Temperature 44 °F 59 °F 77 °F (2002)
Min Temperature 22 °F 38 °F 22 °F (2013)
Degree Days  
Heating Degree Days 32    
Moisture  
Dew Point 9 °F    
Average Humidity 37    
Maximum Humidity 60    
Minimum Humidity 25    
Precipitation  
Precipitation 0.00 in - - ()
Sea Level Pressure  
Sea Level Pressure 30.46 in    
Wind  
Wind Speed 6 mph (West)    
Max Wind Speed 14 mph    
Max Gust Speed 20 mph    
Visibility 10 miles    
Events      
Averages and records for this station are not official NWS values.
T = Trace of Precipitation, MM = Missing Value Source: NWS Daily Summary

Daily Weather History Graph

Daily Weather History Graph

Search for Another Location

Airport or City:

Trip Planner

Search our weather history database for the weather conditions in past years. The results will help you decide how hot, cold, wet, or windy it might be!

Date:

Astronomy

May. 19, 2013 Rise Set
Actual Time 4:12 AM AKDT 11:19 PM AKDT
Civil Twilight 2:17 AM AKDT 1:12 AM AKDT
Nautical Twilight Sun does not set Sun does not set
Astronomical Twilight Sun does not set Sun does not set
Moon 3:16 PM AKDT (5/19) 3:08 AM AKDT (5/19)
Length of Visible Light 22h 55m
Length of Day
19h 07m
Waxing Gibbous, 66% of the Moon is Illuminated
May 19
Waxing Gibbous
May 24
Full
May 31
Last Quarter
Jun 8
New
Jun 16
First Quarter

Hourly Weather History & Observations

Time (AKDT) Temp. Windchill Dew Point Humidity Pressure Visibility Wind Dir Wind Speed Gust Speed Precip Events Conditions
12:55 AM 27.9 °F 21.5 °F 9.1 °F 45% 30.24 in 10.0 mi Variable 5.8 mph - N/A   Partly Cloudy
1:55 AM 27.0 °F 19.5 °F 9.5 °F 48% 30.27 in 10.0 mi Variable 6.9 mph - N/A   Clear
2:55 AM 26.2 °F 19.6 °F 10.4 °F 51% 30.30 in 10.0 mi Variable 5.8 mph - N/A   Clear
3:55 AM 24.3 °F 19.9 °F 10.9 °F 57% 30.34 in 10.0 mi WSW 3.5 mph - N/A   Clear
4:55 AM 23.2 °F 17.2 °F 11.3 °F 60% 30.36 in 10.0 mi Variable 4.6 mph - N/A   Clear
5:55 AM 22.8 °F 16.7 °F 10.6 °F 59% 30.39 in 10.0 mi WSW 4.6 mph - N/A   Clear
6:55 AM 23.5 °F - 10.0 °F 56% 30.41 in 10.0 mi Calm Calm - N/A   Clear
7:55 AM 28.4 °F - 11.8 °F 50% 30.43 in 10.0 mi Calm Calm - N/A   Clear
8:55 AM 31.3 °F 21.1 °F 4.8 °F 33% 30.45 in 10.0 mi West 13.8 mph - N/A   Clear
9:55 AM 33.1 °F 26.1 °F 5.4 °F 31% 30.47 in 10.0 mi WNW 8.1 mph - N/A   Clear
10:55 AM 35.2 °F 28.8 °F 4.1 °F 27% 30.48 in 10.0 mi NW 8.1 mph 19.6 mph N/A   Clear
11:55 AM 36.5 °F 28.7 °F 4.5 °F 26% 30.50 in 10.0 mi WNW 11.5 mph - N/A   Clear
12:55 PM 38.3 °F 31.9 °F 6.4 °F 27% 30.51 in 10.0 mi West 9.2 mph - N/A   Clear
1:55 PM 39.9 °F 34.5 °F 7.3 °F 26% 30.52 in 10.0 mi West 8.1 mph - N/A   Clear
2:55 PM 40.6 °F 36.0 °F 6.8 °F 25% 30.53 in 10.0 mi NW 6.9 mph - N/A   Clear
3:55 PM 41.9 °F 36.3 °F 8.2 °F 25% 30.53 in 10.0 mi WNW 9.2 mph - N/A   Clear
4:55 PM 42.8 °F 37.5 °F 9.3 °F 25% 30.53 in 10.0 mi WNW 9.2 mph - N/A   Clear
5:55 PM 43.3 °F 38.6 °F 9.9 °F 26% 30.54 in 10.0 mi West 8.1 mph - N/A   Clear
6:55 PM 43.9 °F 40.5 °F 10.6 °F 26% 30.54 in 10.0 mi Variable 5.8 mph - N/A   Clear
7:55 PM 44.2 °F 40.3 °F 10.9 °F 26% 30.54 in 10.0 mi Variable 6.9 mph - N/A   Clear
8:55 PM 43.5 °F - 10.9 °F 27% 30.55 in 10.0 mi Calm Calm - N/A   Clear
9:55 PM 42.3 °F 40.5 °F 11.1 °F 28% 30.56 in 10.0 mi WSW 3.5 mph - N/A   Clear
10:55 PM 36.7 °F - 13.1 °F 38% 30.57 in 10.0 mi Calm Calm - N/A   Clear
11:55 PM 32.5 °F 27.1 °F 13.5 °F 45% 30.59 in 10.0 mi Variable 5.8 mph - N/A   Clear